IRIDIUM 55 [-]

Last updated on March 31, 2019, 3:13 a.m. UTC

1 25272U 98019A   19090.02225584  .15469727 -19946-5  38761-3 0  9996
2 25272  86.6812  13.6058 0074982 116.7376 244.8729 16.34393185 99945

Satellite is not in orbit.